OneWeb SL0366

operational
NORAD ID: 49292 Int'l Des: 2021-090 Owner: ONEWEBN Country: UK Constellation: oneweb
LEOCIRCULARPOLARONEWEB_TYPE

OneWeb SL0366について

説明を読み込み中...

リアルタイム位置

3D地球を読み込み中...

次回通過

高度履歴

Altitude vs Time

uPlot chart will show altitude changes over time

軌道要素

1 49292U 21090P 25304.62583156 .00000267 00000-0 68644-3 0 9994
2 49292 87.9007 335.2559 0001805 93.8954 266.2382 13.14503046197534
Epoch: Oct 31, 2025 • Age: 7 hours

現在のステータス

高度 1225.8 km
速度 7.24 km/s
衛星直下点 -49.02°S, 152.25°E
打ち上げ日 Oct 14, 2021
運用期間 4 years
タイプ internet

技術仕様

分類 Payload
質量 148.00 kg
乾燥質量 140.00 kg
総質量 148.00 kg
長さ 1.30 m
直径 1.00 m
スパン 5.00 m
形状 Trapezoid+2 pan
製造者 ONEWUS
バスタイプ ARROW
フェーズステータス In Orbit
所有者/国 ONEWEBN/UK

大規模コンステレーション

Loading constellations...